EW1617 Weather Reports


Display with metric or nautical units.
time (UTC)temp
F
wind
direction
speed
MPH
gust
MPH
rain 1hr
in
rain 24hr
in
rain mn
in
humidity
%
barometer
mb
20260905031007 58 81 0.0 0.0 0.00 0.06 0.00 99 1015.2
20260905030506 58 90 0.0 0.0 0.00 0.06 0.00 99 1015.2
20260905030007 58 81 0.0 0.0 0.00 0.06 0.00 99 1015.2
20260905025507 59 68 0.0 0.0 0.00 0.06 0.00 99 1015.2
20260905025007 59 81 0.0 0.0 0.00 0.06 0.00 99 1014.9
20260905024507 59 81 0.0 0.0 0.00 0.06 0.00 99 1014.9
20260905024007 60 63 0.0 0.0 0.00 0.06 0.00 99 1014.9
20260905023507 60 72 0.0 0.0 0.00 0.06 0.00 99 1014.9
20260905023007 60 63 0.0 0.0 0.00 0.06 0.00 99 1015.0
20260905022507 60 63 0.0 0.0 0.00 0.06 0.00 99 1015.2
20260905022007 60 90 0.0 0.0 0.00 0.06 0.00 99 1015.2
20260905021508 60 63 0.0 0.0 0.00 0.06 0.00 99 1014.9
20260905021006 61 81 0.0 0.0 0.00 0.06 0.00 99 1014.9
20260905020507 61 63 0.0 0.0 0.00 0.06 0.00 99 1014.9
20260905020007 61 81 0.0 0.0 0.00 0.06 0.00 99 1014.9
20260905015507 61 72 0.0 0.0 0.00 0.06 0.00 99 1014.9
20260905015007 61 63 0.0 0.0 0.00 0.06 0.00 99 1014.9
20260905014507 61 72 0.0 0.0 0.00 0.06 0.00 99 1014.6
20260905014008 61 72 0.0 0.0 0.00 0.06 0.00 99 1014.6
20260905013507 61 72 0.0 0.0 0.00 0.06 0.00 99 1014.6
20260905013007 61 72 0.0 0.0 0.00 0.06 0.00 99 1014.6
20260905012507 61 72 0.0 0.0 0.00 0.06 0.00 99 1014.6
20260905012007 61 72 0.0 0.0 0.00 0.06 0.00 99 1014.6
20260905011507 61 54 0.0 0.0 0.00 0.06 0.00 99 1014.6
20260905011007 61 81 0.0 0.0 0.00 0.06 0.00 99 1014.6
20260905010507 61 54 0.0 0.0 0.00 0.06 0.00 99 1014.6
20260905010007 61 81 0.0 0.0 0.00 0.06 0.00 99 1014.4
20260905005507 61 81 0.0 0.0 0.00 0.06 0.00 99 1014.6
20260905005007 61 81 0.0 0.0 0.00 0.06 0.00 99 1014.6
20260905004506 61 81 0.0 0.0 0.00 0.06 0.00 99 1014.6
20260905004007 61 72 0.0 0.0 0.00 0.06 0.00 99 1014.5
20260905003507 61 54 0.0 0.0 0.00 0.06 0.00 99 1014.2
20260905003007 61 72 0.0 0.0 0.00 0.06 0.00 99 1014.2
20260905002507 61 90 1.0 4.0 0.00 0.06 0.00 99 1014.2
20260905002006 61 90 0.0 0.0 0.00 0.06 0.00 99 1014.2
20260905001507 61 90 0.0 0.0 0.00 0.06 0.00 99 1014.2
20260905001007 61 90 1.0 2.0 0.00 0.06 0.00 99 1014.2
20260905000507 61 90 0.0 1.0 0.00 0.06 0.00 99 1014.4
20260905000007 61 90 0.0 0.0 0.00 0.06 0.00 99 1014.2
20260904235507 60 90 0.0 0.0 0.00 0.06 0.00 99 1014.4
20260904235007 60 90 0.0 0.0 0.00 0.06 0.00 99 1014.6
20260904234507 60 90 0.0 0.0 0.00 0.06 0.00 99 1014.6
20260904234007 60 90 0.0 0.0 0.00 0.06 0.00 99 1014.6
20260904233507 60 90 0.0 1.0 0.00 0.06 0.00 99 1014.4
20260904233007 60 90 0.0 0.0 0.00 0.06 0.00 99 1014.2
20260904232507 59 90 0.0 1.0 0.00 0.06 0.00 99 1014.2
20260904232008 59 90 0.0 0.0 0.00 0.06 0.00 99 1014.2
20260904231507 58 90 0.0 0.0 0.00 0.06 0.00 99 1014.2
20260904231007 58 90 0.0 0.0 0.00 0.06 0.00 99 1014.2
20260904230507 58 90 0.0 0.0 0.00 0.06 0.00 99 1014.2
20260904230007 58 90 0.0 0.0 0.00 0.06 0.00 99 1014.2
20260904225507 58 90 0.0 0.0 0.00 0.06 0.00 99 1014.2
20260904225007 58 90 0.0 0.0 0.00 0.06 0.00 99 1014.2
20260904224508 58 90 0.0 0.0 0.00 0.06 0.00 99 1014.2
20260904224007 58 90 0.0 0.0 0.00 0.05 0.00 99 1014.2
20260904223507 58 90 0.0 0.0 0.00 0.05 0.00 99 1014.2
20260904223007 58 90 0.0 0.0 0.00 0.05 0.00 99 1014.2
20260904222507 58 90 0.0 0.0 0.00 0.05 0.00 98 1014.2
20260904222007 58 90 0.0 0.0 0.00 0.05 0.00 98 1014.2
20260904221507 58 90 0.0 0.0 0.00 0.05 0.00 98 1014.2
20260904221007 59 90 0.0 0.0 0.00 0.05 0.00 97 1014.2
20260904220507 59 90 0.0 1.0 0.00 0.04 0.00 97 1014.2
20260904220007 60 90 0.0 1.0 0.00 0.04 0.00 96 1014.2
20260904215507 60 108 0.0 2.0 0.00 0.04 0.00 97 1014.2
20260904215007 61 171 1.0 3.0 0.00 0.03 0.00 96 1014.2
20260904214507 62 158 6.0 7.0 0.00 0.03 0.00 95 1014.1
20260904214006 63 153 7.0 8.0 0.00 0.03 0.00 94 1013.9
20260904213507 63 144 6.0 8.0 0.00 0.02 0.00 93 1013.9
20260904213007 65 144 8.0 9.0 0.00 0.02 0.00 89 1013.6
20260904212507 66 144 7.0 8.0 0.00 0.02 0.00 80 1013.6
20260904212007 66 207 5.0 7.0 0.00 0.02 0.00 75 1013.3
20260904211507 67 144 3.0 6.0 0.00 0.02 0.00 69 1013.2
20260904211006 67 135 2.0 5.0 0.00 0.02 0.00 72 1013.2
20260904210507 67 243 1.0 6.0 0.00 0.02 0.00 72 1013.2
20260904210007 68 270 0.0 0.0 0.00 0.02 0.00 73 1013.2
20260904205507 68 270 0.0 2.0 0.00 0.02 0.00 72 1013.2
20260904205007 69 270 1.0 2.0 0.00 0.02 0.00 70 1013.2
20260904204507 69 270 1.0 5.0 0.00 0.02 0.00 68 1012.9
20260904204007 68 304 1.0 4.0 0.00 0.02 0.00 76 1012.9
20260904203507 67 279 2.0 4.0 0.00 0.02 0.00 87 1013.1
20260904203007 65 261 1.0 3.0 0.00 0.02 0.00 89 1013.2
20260904202507 65 315 1.0 5.0 0.00 0.02 0.00 86 1013.2
20260904202006 66 279 2.0 5.0 0.00 0.02 0.00 84 1013.2
20260904201507 66 317 1.0 5.0 0.00 0.02 0.00 85 1013.2
20260904201007 66 235 5.0 5.0 0.00 0.02 0.00 84 1013.2
20260904200507 65 217 3.0 5.0 0.00 0.02 0.00 88 1013.2
20260904200007 65 191 4.0 5.0 0.00 0.02 0.00 87 1013.2
20260904195507 65 162 4.0 6.0 0.00 0.02 0.00 86 1013.2
20260904195007 65 144 3.0 5.0 0.00 0.02 0.00 87 1013.2
20260904194506 65 207 2.0 4.0 0.00 0.02 0.00 90 1013.3
20260904194007 64 309 1.0 5.0 0.00 0.02 0.00 90 1013.6
20260904193507 65 225 3.0 6.0 0.00 0.02 0.00 89 1013.6
20260904193007 65 135 4.0 6.0 0.00 0.02 0.00 86 1013.5
20260904192507 66 199 3.0 5.0 0.00 0.02 0.00 83 1013.6
20260904192007 66 207 3.0 6.0 0.00 0.02 0.00 76 1013.6
20260904191507 67 225 2.0 6.0 0.00 0.02 0.00 77 1013.6
20260904191007 67 225 0.0 2.0 0.00 0.02 0.00 79 1013.6
20260904190507 67 243 3.0 6.0 0.00 0.02 0.00 77 1013.6
20260904190007 67 63 1.0 5.0 0.00 0.02 0.00 83 1013.6
20260904185507 66 180 2.0 5.0 0.00 0.02 0.00 85 1013.6
20260904185007 65 225 0.0 0.0 0.00 0.02 0.00 89 1013.6
20260904184507 65 153 0.0 4.0 0.00 0.02 0.00 88 1013.6
20260904184006 65 72 1.0 4.0 0.00 0.02 0.00 87 1013.4
20260904183508 65 0 0.0 0.0 0.00 0.02 0.00 89 1013.2
20260904183007 65 0 0.0 1.0 0.00 0.02 0.00 88 1013.3
20260904182506 65 216 0.0 1.0 0.00 0.02 0.00 84 1013.5
20260904182007 64 270 1.0 2.0 0.00 0.02 0.00 88 1013.3
20260904181508 64 270 1.0 2.0 0.00 0.02 0.00 89 1013.2
20260904181008 64 270 1.0 3.0 0.00 0.02 0.00 89 1013.2
20260904180507 64 270 0.0 2.0 0.00 0.02 0.00 92 1013.2
20260904180006 64 270 0.0 0.0 0.00 0.02 0.00 93 1013.2
20260904175508 64 270 0.0 1.0 0.00 0.02 0.00 94 1013.2
20260904175007 63 216 2.0 5.0 0.00 0.02 0.00 93 1013.2
20260904174507 63 63 0.0 0.0 0.00 0.02 0.00 93 1013.2
20260904174006 63 45 0.0 0.0 0.00 0.02 0.00 93 1013.2
20260904173507 63 45 0.0 0.0 0.00 0.02 0.00 93 1013.2
20260904173007 63 45 0.0 0.0 0.00 0.02 0.00 95 1013.2
20260904172507 62 45 0.0 0.0 0.00 0.02 0.00 95 1013.2
20260904172007 62 45 0.0 0.0 0.00 0.02 0.00 95 1013.2
20260904171507 62 45 0.0 0.0 0.00 0.02 0.00 96 1013.2
20260904171007 62 45 0.0 0.0 0.00 0.02 0.00 96 1013.2
20260904170507 61 45 0.0 0.0 0.00 0.02 0.00 97 1013.2
20260904170007 61 45 0.0 0.0 0.00 0.02 0.00 98 1013.2
20260904165507 60 117 0.0 0.0 0.00 0.02 0.00 98 1013.1
20260904165007 60 225 0.0 0.0 0.00 0.02 0.00 99 1012.9
20260904164507 60 225 0.0 0.0 0.00 0.02 0.00 99 1012.9
20260904164007 59 225 0.0 0.0 0.00 0.02 0.00 99 1012.9
20260904163507 58 225 0.0 0.0 0.00 0.02 0.00 99 1012.9
20260904163007 58 225 0.0 0.0 0.00 0.02 0.00 99 1012.9
20260904162507 58 225 0.0 0.0 0.00 0.02 0.00 99 1012.9
20260904162007 57 225 0.0 0.0 0.00 0.02 0.00 99 1012.9
20260904161507 57 225 0.0 0.0 0.00 0.02 0.00 99 1012.9
20260904161007 57 225 0.0 0.0 0.00 0.02 0.00 99 1012.9
20260904160507 57 225 0.0 0.0 0.00 0.02 0.00 99 1012.9
20260904160007 56 225 0.0 0.0 0.00 0.02 0.00 99 1012.9
20260904155507 56 225 0.0 0.0 0.00 0.02 0.00 99 1012.9
20260904155007 56 225 0.0 0.0 0.00 0.02 0.00 99 1012.9
20260904154506 55 225 0.0 0.0 0.00 0.02 0.00 99 1012.9
20260904154007 55 225 0.0 0.0 0.00 0.02 0.00 99 1012.9
20260904153507 55 225 0.0 0.0 0.00 0.02 0.00 99 1012.9
20260904153007 55 225 0.0 0.0 0.00 0.02 0.00 99 1012.9
20260904152507 55 225 0.0 0.0 0.00 0.02 0.00 99 1012.9
20260904152007 55 225 0.0 0.0 0.00 0.02 0.00 99 1012.9
20260904151507 54 225 0.0 0.0 0.00 0.02 0.00 99 1012.9
20260904151007 54 225 0.0 0.0 0.00 0.02 0.00 99 1012.9
20260904150507 54 225 0.0 0.0 0.00 0.02 0.00 99 1012.7
20260904150007 54 225 0.0 0.0 0.00 0.02 0.00 99 1012.5
20260904145506 54 225 0.0 0.0 0.00 0.02 0.00 99 1012.5
20260904145007 54 225 0.0 0.0 0.00 0.02 0.00 99 1012.2
20260904144507 54 225 0.0 0.0 0.00 0.02 0.00 99 1012.2
20260904144007 54 225 0.0 0.0 0.00 0.02 0.00 99 1012.2
20260904143507 54 225 0.0 0.0 0.00 0.02 0.00 99 1012.2
20260904143007 54 225 0.0 0.0 0.00 0.02 0.00 99 1012.2
20260904142507 54 225 0.0 0.0 0.00 0.02 0.00 99 1012.2
20260904142007 54 225 0.0 0.0 0.00 0.02 0.00 99 1012.2
20260904141507 54 225 0.0 0.0 0.00 0.02 0.00 99 1012.2
20260904141007 54 225 0.0 0.0 0.00 0.02 0.00 99 1012.1
20260904140506 54 225 0.0 0.0 0.00 0.02 0.00 99 1011.9
20260904140008 54 225 0.0 0.0 0.00 0.02 0.00 99 1011.9
20260904135506 54 225 0.0 0.0 0.00 0.02 0.00 99 1011.9
20260904135008 54 225 0.0 0.0 0.00 0.02 0.00 99 1011.9
20260904134508 54 225 0.0 0.0 0.00 0.02 0.00 99 1011.9
20260904134007 54 225 0.0 0.0 0.00 0.02 0.00 99 1011.9
20260904133507 54 225 0.0 0.0 0.00 0.02 0.00 99 1011.9
20260904133008 54 225 0.0 0.0 0.00 0.02 0.00 99 1011.9
20260904132506 54 225 0.0 0.0 0.00 0.02 0.00 99 1011.9
20260904132006 54 225 0.0 0.0 0.00 0.02 0.00 99 1011.9
20260904131507 54 225 0.0 0.0 0.00 0.02 0.00 99 1011.9
20260904131007 54 225 0.0 0.0 0.00 0.02 0.00 99 1011.9
20260904130506 54 225 0.0 0.0 0.00 0.02 0.00 99 1011.8
20260904130007 54 225 0.0 0.0 0.00 0.02 0.00 99 1011.5
20260904125507 54 225 0.0 0.0 0.00 0.02 0.00 99 1011.5
20260904125007 54 225 0.0 0.0 0.00 0.02 0.00 99 1011.5
20260904124506 54 225 0.0 0.0 0.00 0.02 0.00 99 1011.5
20260904124007 54 225 0.0 0.0 0.00 0.02 0.00 99 1011.5
20260904123507 54 225 0.0 0.0 0.00 0.02 0.00 99 1011.5
20260904123008 54 225 0.0 0.0 0.00 0.02 0.00 99 1011.3
20260904122507 54 225 0.0 0.0 0.00 0.02 0.00 99 1011.2
20260904122007 54 225 0.0 0.0 0.00 0.02 0.00 99 1011.2
20260904121507 54 225 0.0 0.0 0.00 0.01 0.00 99 1011.2
20260904121006 54 225 0.0 0.0 0.00 0.01 0.00 99 1011.2
20260904120507 54 225 0.0 0.0 0.00 0.01 0.00 99 1011.2
20260904120007 54 225 0.0 0.0 0.00 0.01 0.00 99 1011.2
20260904115507 54 225 0.0 0.0 0.00 0.01 0.00 99 1011.2
20260904115007 54 225 0.0 0.0 0.00 0.01 0.00 99 1011.2
20260904114506 54 225 0.0 0.0 0.00 0.01 0.00 99 1011.2
20260904114007 54 225 0.0 0.0 0.00 0.01 0.00 99 1011.2
20260904113507 54 225 0.0 0.0 0.00 0.01 0.00 99 1011.2
20260904113008 54 225 0.0 0.0 0.00 0.01 0.00 99 1011.2
20260904112507 54 225 0.0 0.0 0.00 0.01 0.00 99 1010.9
20260904112007 54 225 0.0 0.0 0.00 0.01 0.00 99 1010.8
20260904111507 55 225 0.0 0.0 0.00 0.01 0.00 99 1010.8
20260904111007 55 225 0.0 0.0 0.00 0.01 0.00 99 1010.8
20260904110506 55 225 0.0 0.0 0.00 0.00 0.00 99 1010.8
20260904110007 55 225 0.0 0.0 0.00 0.00 0.00 99 1010.8
20260904105507 55 225 0.0 0.0 0.00 0.00 0.00 99 1010.8
20260904105007 55 225 0.0 0.0 0.00 0.00 0.00 99 1010.8
20260904104507 55 225 0.0 0.0 0.00 0.00 0.00 99 1010.8
20260904104007 55 225 0.0 0.0 0.00 0.00 0.00 99 1010.8
20260904103507 55 225 0.0 0.0 0.00 0.00 0.00 99 1010.8
20260904103007 54 225 0.0 0.0 0.00 0.00 0.00 99 1010.8
20260904102507 54 225 0.0 0.0 0.00 0.00 0.00 99 1010.8
20260904102007 54 225 0.0 0.0 0.00 0.00 0.00 99 1010.8
20260904101507 54 225 0.0 0.0 0.00 0.00 0.00 99 1010.7
20260904101007 54 225 0.0 0.0 0.00 0.00 0.00 99 1010.5
20260904100507 54 225 0.0 0.0 0.00 0.00 0.00 99 1010.5
20260904100007 54 225 0.0 0.0 0.00 0.00 0.00 99 1010.5
20260904095507 54 225 0.0 0.0 0.00 0.00 0.00 99 1010.5
20260904095006 54 225 0.0 0.0 0.00 0.00 0.00 99 1010.5
20260904094507 54 225 0.0 0.0 0.00 0.00 0.00 99 1010.5
20260904094007 55 225 0.0 0.0 0.00 0.00 0.00 99 1010.5
20260904093507 55 225 0.0 0.0 0.00 0.00 0.00 99 1010.5
20260904093007 55 225 0.0 0.0 0.00 0.00 0.00 99 1010.5
20260904092507 55 225 0.0 0.0 0.00 0.00 0.00 99 1010.5
20260904092007 55 225 0.0 0.0 0.00 0.00 0.00 99 1010.5
20260904091507 55 225 0.0 0.0 0.00 0.00 0.00 99 1010.5
20260904091007 55 225 0.0 0.0 0.00 0.00 0.00 99 1010.5
20260904090507 55 225 0.0 0.0 0.00 0.00 0.00 99 1010.5
20260904090008 55 225 0.0 0.0 0.00 0.00 0.00 99 1010.5
20260904085507 55 225 0.0 0.0 0.00 0.00 0.00 99 1010.2
20260904085007 55 225 0.0 0.0 0.00 0.00 0.00 99 1010.2
20260904084507 55 225 0.0 0.0 0.00 0.00 0.00 99 1010.3
20260904084007 55 225 0.0 0.0 0.00 0.00 0.00 99 1010.5
20260904083507 55 225 0.0 0.0 0.00 0.00 0.00 99 1010.5
20260904083008 55 225 0.0 0.0 0.00 0.00 0.00 99 1010.5
20260904082507 55 225 0.0 0.0 0.00 0.00 0.00 99 1010.5
20260904082008 55 225 0.0 0.0 0.00 0.00 0.00 99 1010.5
20260904081507 55 225 0.0 0.0 0.00 0.00 0.00 99 1010.5
20260904081007 55 225 0.0 0.0 0.00 0.00 0.00 99 1010.3
20260904080506 56 225 0.0 0.0 0.00 0.00 0.00 99 1010.5
20260904080007 56 225 0.0 0.0 0.00 0.00 0.00 99 1010.5
20260904075507 56 225 0.0 0.0 0.00 0.00 0.00 99 1010.5
20260904075007 56 225 0.0 0.0 0.00 0.00 0.00 99 1010.5
20260904074507 56 225 0.0 0.0 0.00 0.00 0.00 99 1010.5
20260904074007 56 225 0.0 0.0 0.00 0.00 0.00 99 1010.5
20260904073507 56 225 0.0 0.0 0.00 0.00 0.00 99 1010.5
20260904073007 56 225 0.0 0.0 0.00 0.00 0.00 99 1010.5
20260904072506 56 225 0.0 0.0 0.00 0.00 0.00 99 1010.5
20260904072008 56 225 0.0 0.0 0.00 0.00 0.00 99 1010.5
20260904071506 56 225 0.0 0.0 0.00 0.00 0.00 99 1010.5
20260904071007 56 225 0.0 0.0 0.00 0.00 0.00 99 1010.5
20260904070507 56 225 0.0 0.0 0.00 0.00 0.00 99 1010.3
20260904070007 56 225 0.0 0.0 0.00 0.00 0.00 99 1010.2
20260904065507 56 225 0.0 0.0 0.00 0.07 0.00 99 1010.2
20260904065007 55 225 0.0 0.0 0.00 0.07 0.00 99 1010.2
20260904064507 55 225 0.0 0.0 0.00 0.07 0.00 99 1010.2
20260904064007 55 225 0.0 0.0 0.00 0.07 0.00 99 1010.2
20260904063507 55 225 0.0 0.0 0.00 0.07 0.00 99 1010.2
20260904063007 55 225 0.0 0.0 0.00 0.07 0.00 99 1010.2
20260904062507 55 225 0.0 0.0 0.00 0.07 0.00 99 1010.2
20260904062007 55 225 0.0 0.0 0.00 0.07 0.00 99 1010.2
20260904061507 55 225 0.0 0.0 0.00 0.07 0.00 99 1010.2
20260904061007 55 225 0.0 0.0 0.00 0.07 0.00 99 1010.2
20260904060507 55 225 0.0 0.0 0.00 0.07 0.00 99 1010.2
20260904060007 55 225 0.0 0.0 0.00 0.07 0.00 99 1010.2
20260904055507 55 225 0.0 0.0 0.00 0.07 0.00 99 1010.2
20260904055007 55 225 0.0 0.0 0.00 0.07 0.00 99 1010.3
20260904054507 55 225 0.0 0.0 0.00 0.07 0.00 99 1010.5
20260904054007 55 225 0.0 0.0 0.00 0.07 0.00 99 1010.5
20260904053507 55 225 0.0 0.0 0.00 0.07 0.00 99 1010.5
20260904053007 55 225 0.0 0.0 0.00 0.07 0.00 99 1010.5
20260904052507 55 225 0.0 0.0 0.00 0.07 0.00 99 1010.5
20260904052007 55 225 0.0 0.0 0.00 0.07 0.00 99 1010.5
20260904051507 56 225 0.0 0.0 0.00 0.07 0.00 99 1010.5
20260904051007 56 225 0.0 0.0 0.00 0.07 0.00 99 1010.5
20260904050506 56 225 0.0 0.0 0.00 0.07 0.00 99 1010.5
20260904050007 56 225 0.0 0.0 0.00 0.07 0.00 99 1010.5
20260904045507 56 225 0.0 0.0 0.00 0.07 0.00 99 1010.5
20260904045007 56 225 0.0 0.0 0.00 0.07 0.00 98 1010.5
20260904044507 56 225 0.0 0.0 0.00 0.07 0.00 98 1010.5
20260904044007 56 225 0.0 0.0 0.00 0.07 0.00 98 1010.5
20260904043507 56 225 0.0 0.0 0.00 0.07 0.00 98 1010.5
20260904043006 56 225 0.0 0.0 0.00 0.07 0.00 98 1010.5
20260904042507 56 225 0.0 0.0 0.00 0.07 0.00 98 1010.5
20260904042007 56 225 0.0 0.0 0.00 0.07 0.00 98 1010.5
20260904041507 56 225 0.0 0.0 0.00 0.07 0.00 98 1010.5
20260904041007 56 225 0.0 0.0 0.00 0.07 0.00 98 1010.5
20260904040507 56 225 0.0 0.0 0.00 0.07 0.00 98 1010.5
20260904040007 56 225 0.0 0.0 0.00 0.07 0.00 98 1010.5
20260904035507 56 225 0.0 0.0 0.00 0.07 0.00 98 1010.5
20260904035007 56 225 0.0 0.0 0.00 0.07 0.00 98 1010.5
20260904034507 57 225 0.0 0.0 0.00 0.07 0.00 98 1010.5
20260904034007 57 225 0.0 0.0 0.00 0.07 0.00 98 1010.5
20260904033507 57 225 0.0 0.0 0.00 0.07 0.00 97 1010.2
20260904033007 57 225 0.0 0.0 0.00 0.07 0.00 97 1010.2
20260904032507 57 225 0.0 0.0 0.00 0.07 0.00 97 1010.2
20260904032007 57 225 0.0 0.0 0.00 0.07 0.00 97 1010.2
20260904031507 57 225 0.0 0.0 0.00 0.07 0.00 97 1010.1